Other Surface Observations
Issued by NWS Upton, NY

Current Version | Previous Version | Text Only | Print | Product List | Glossary Off
Versions: 1 2 3 4 5 6 7 8 9 10 11 12 13 14 15 16 17 18 19 20 21 22 23 24 25 26 27 28 29 30 31 32 33 34 35 36 37 38 39 40 41 42 43 44 45 46 47 48 49 50

000
SXUS51 KOKX 211257
OSOOKX
New York City Metropolitan Area Weather Roundup
National Weather Service New York NY
800 AM EST WED FEB 21 2018

CITY           SKY/WX    TMP DP  RH WIND       PRES   REMARKS
Central Park   CLOUDY    63  58  83 W10G17    30.32R
LaGuardia Arpt CLOUDY    58  53  84 S7        30.30R
Kennedy Intl   FOG       47  47 100 S7        30.33R VSB 1/4
Newark Liberty CLOUDY    62  59  90 SW9       30.29S
Teterboro Arpt CLOUDY    62  58  86 SW8       30.28F
Bronx Bot Gard   N/A     61  57  88 SW14      30.31R
Bronx Lehman C   N/A     61  57  88 SW9         N/A
Queens College   N/A     50  50 100 S8          N/A
Breezy Point     N/A     45 N/A N/A SE2         N/A
Brooklyn Coll    N/A     48  48 100 SE2         N/A
Staten Island    N/A     61  59  94 SW8         N/A

>>>>>>>>>>>>>>>>>>>>>>>>>>>>>>>>> KEY <<<<<<<<<<<<<<<<<<<<<<<<<<<<<<<
> SKY/WX - Sky Condition/Present    : R : WCI - Wind Chill Index    <
>          Weather                  : E : VSB - Visibility in Miles <
> TMP    - Temperature in Deg F     : M : HX  - Heat Index          <
> DP     - Dew Point Temperature    : A : TC  - Temperature in      <
> RH     - Relative Humidity        : R :       Celsius             <
> WIND   - Direction/Speed (mph)    : K : VRB - Variable Wind Dir   <
> PRES   - Pressure (in Hg)         : S :                           <
>>>>>>>>>>>>>>>>>>>>>>>>>>>>>>>>> KEY <<<<<<<<<<<<<<<<<<<<<<<<<<<<<<<



USA.gov is the U.S. government's official web portal to all federal, state and local government web resources and services.